Home   Weather   Columbia   Past weeks

Flag for USA Past Weather in Columbia, South Carolina, USA — Yesterday and Last 2 Weeks

Now
76 °F

Overcast.


Feels Like: 76 °F
Forecast: 76 / 88 °F
Wind: 3 mph from South

Location: Columbia Owens Downtown Airport

Current Time: Jul 24, 2017 at 8:56:40 am

Latest Report: Jul 24, 2017 at 7:53 am


Visibility: 10 mi

Pressure: 29.93 "Hg

Humidity: 91%

Dew Point: 73 °F

Location of ColumbiaLocation

Past Weather in Columbia — Graph

°F

Columbia Temperature Yesterday

Maximum temperature yesterday: 96 °F (at 1:53 pm)
Minimum temperature yesterday: 73 °F (at 7:34 pm)
Average temperature yesterday: 84 °F

High & Low Weather Summary for the Past Weeks

 TemperatureHumidityPressure
High96 °F (Jul 14, 3:53 pm)97% (Jul 11, 12:53 am)30.21 "Hg (Jul 11, 12:53 am)
Low72 °F (Jul 16, 10:00 pm)38% (Jul 14, 4:53 pm)29.81 "Hg (Jul 23, 4:53 pm)
Average82 °F74%30.04 "Hg
* Reported Jul 9 6:53 am — Jul 24 6:53 am, Columbia. Weather by CustomWeather, © 2017

Note: Actual official high and low records may vary slightly from our data, if they occured in-between our weather recording intervals... More about our weather records

Advertising

Columbia Weather History for the Previous 24 Hours

Scroll right to see more
 ConditionsComfort  
Time TempWeatherWind HumidityBarometerVisibility
6:53 am
Mon, Jul 24
74 °FOvercast.6 mph97%29.93 "Hg9 mi
5:53 am74 °FClear.No wind97%29.91 "Hg9 mi
4:53 am74 °FPassing clouds.No wind97%29.89 "Hg10 mi
3:53 am74 °FPassing clouds.No wind97%29.89 "Hg10 mi
2:53 am74 °FMostly cloudy.3 mph97%29.89 "Hg10 mi
1:53 am74 °FPassing clouds.3 mph97%29.89 "Hg10 mi
1:40 am74 °FPassing clouds.3 mph97%29.91 "Hg10 mi
1:12 am75 °FMostly cloudy.3 mph94%29.92 "Hg10 mi
12:53 am75 °FMostly cloudy.3 mph94%29.91 "Hg10 mi
11:53 pm
Sun, Jul 23
76 °FClear.7 mph88%29.90 "Hg10 mi
10:53 pm74 °FPartly cloudy.No wind94%29.90 "Hg10 mi
10:08 pm75 °FLight rain. Passing clouds.3 mph94%29.93 "Hg10 mi
9:38 pm74 °FLight rain. Passing clouds.3 mph97%29.94 "Hg7 mi
8:53 pm75 °FThundershowers. Passing clouds.6 mph90%29.93 "Hg10 mi
7:53 pm74 °FThunderstorms. Fog.9 mph91%29.87 "Hg5 mi
7:34 pm73 °FStrong thunderstorms. Fog.6 mph94%29.91 "Hg1 mi
6:57 pm78 °FFog.N/A87%29.88 "Hg1 mi
6:25 pm91 °FThunderstorms. Passing clouds.12 mph56%29.85 "Hg10 mi
6:16 pm92 °FThundershowers. Sunny.6 mph54%29.84 "Hg10 mi
5:53 pm93 °FThunderstorms. Sunny.6 mph50%29.83 "Hg10 mi
5:41 pm93 °FThundershowers. Sunny.8 mph52%29.84 "Hg10 mi
4:53 pm94 °FSunny.7 mph49%29.81 "Hg10 mi
3:53 pm96 °FSunny.10 mph46%29.84 "Hg10 mi
2:53 pm96 °FPassing clouds.9 mph47%29.84 "Hg10 mi
1:53 pm96 °FScattered clouds.8 mph47%29.87 "Hg10 mi
12:53 pm94 °FSunny.8 mph51%29.90 "Hg10 mi
11:53 am92 °FSunny.9 mph54%29.91 "Hg10 mi
10:53 am90 °FSunny.8 mph59%29.92 "Hg10 mi
9:53 am86 °FSunny.8 mph70%29.93 "Hg10 mi
8:53 am83 °FSunny.8 mph77%29.94 "Hg10 mi
Weather by CustomWeather, © 2017

See weather overviewHow to use our weather pages